Time,TemperatureF,DewpointF,PressureIn,WindDirection,WindDirectionDegrees,WindSpeedMPH,WindSpeedGustMPH,Humidity,HourlyPrecipIn,Conditions,Clouds,dailyrainin,SoftwareType,DateUTC
2015-07-05 00:02:00,70.0,46.0,29.57,West,270,0.0,0.0,42,-99.99,,,-99.99,,2015-07-05 06:02:00,
2015-07-05 00:12:00,70.0,46.0,29.57,West,270,0.0,0.0,42,-99.99,,,-99.99,,2015-07-05 06:12:00,
2015-07-05 00:23:00,70.0,46.0,29.57,West,270,0.0,0.0,42,-99.99,,,-99.99,,2015-07-05 06:23:00,
2015-07-05 00:43:00,68.0,46.0,29.58,West,270,0.0,1.0,45,-99.99,,,-99.99,,2015-07-05 06:43:00,
2015-07-05 00:53:00,67.0,44.0,29.58,West,270,0.0,0.0,44,-99.99,,,-99.99,,2015-07-05 06:53:00,
2015-07-05 01:03:00,67.0,44.0,29.58,West,270,0.0,0.0,44,-99.99,,,-99.99,,2015-07-05 07:03:00,
2015-07-05 01:12:00,66.0,46.0,29.58,West,270,0.0,0.0,48,-99.99,,,-99.99,,2015-07-05 07:12:00,
2015-07-05 01:22:00,66.0,46.0,29.58,West,270,0.0,0.0,48,-99.99,,,-99.99,,2015-07-05 07:22:00,
2015-07-05 01:33:00,65.0,45.0,29.59,West,270,0.0,0.0,49,-99.99,,,-99.99,,2015-07-05 07:33:00,
2015-07-05 01:43:00,65.0,47.0,29.59,West,270,0.0,0.0,52,-99.99,,,-99.99,,2015-07-05 07:43:00,
2015-07-05 01:53:00,64.0,45.0,29.59,West,270,0.0,0.0,51,-99.99,,,-99.99,,2015-07-05 07:53:00,
2015-07-05 02:02:00,64.0,45.0,29.58,West,270,0.0,0.0,51,-99.99,,,-99.99,,2015-07-05 08:02:00,
2015-07-05 02:13:00,64.0,47.0,29.59,West,270,0.0,0.0,53,-99.99,,,-99.99,,2015-07-05 08:13:00,
2015-07-05 02:22:00,64.0,47.0,29.59,West,270,0.0,0.0,53,-99.99,,,-99.99,,2015-07-05 08:22:00,
2015-07-05 02:33:00,64.0,47.0,29.59,West,270,0.0,0.0,53,-99.99,,,-99.99,,2015-07-05 08:33:00,
2015-07-05 02:43:00,65.0,46.0,29.59,North,11,4.0,6.0,50,-99.99,,,-99.99,,2015-07-05 08:43:00,
2015-07-05 02:53:00,69.0,47.0,29.59,NNW,329,1.0,5.0,45,-99.99,,,-99.99,,2015-07-05 08:53:00,
2015-07-05 03:02:00,70.0,44.0,29.60,SE,125,8.0,10.0,39,-99.99,,,-99.99,,2015-07-05 09:02:00,
2015-07-05 03:12:00,72.0,47.0,29.59,East,98,0.0,13.0,41,-99.99,,,-99.99,,2015-07-05 09:12:00,
2015-07-05 03:22:00,73.0,49.0,29.60,SE,132,5.0,11.0,43,-99.99,,,-99.99,,2015-07-05 09:22:00,
2015-07-05 03:33:00,73.0,50.0,29.61,NE,36,8.0,14.0,45,-99.99,,,-99.99,,2015-07-05 09:33:00,
2015-07-05 03:43:00,73.0,50.0,29.61,NE,36,8.0,14.0,45,-99.99,,,-99.99,,2015-07-05 09:43:00,
2015-07-05 03:53:00,72.0,51.0,29.62,SE,124,8.0,14.0,47,-99.99,,,-99.99,,2015-07-05 09:53:00,
2015-07-05 04:02:00,71.0,50.0,29.63,ESE,113,3.0,10.0,48,-99.99,,,-99.99,,2015-07-05 10:02:00,
2015-07-05 04:12:00,71.0,50.0,29.64,East,98,4.0,7.0,48,-99.99,,,-99.99,,2015-07-05 10:12:00,
2015-07-05 04:23:00,70.0,50.0,29.66,West,277,0.0,10.0,49,-99.99,,,-99.99,,2015-07-05 10:23:00,
2015-07-05 04:33:00,70.0,50.0,29.66,ENE,57,3.0,6.0,49,-99.99,,,-99.99,,2015-07-05 10:33:00,
2015-07-05 04:43:00,69.0,50.0,29.67,East,82,3.0,6.0,50,-99.99,,,-99.99,,2015-07-05 10:43:00,
2015-07-05 04:53:00,69.0,50.0,29.67,East,82,3.0,6.0,50,-99.99,,,-99.99,,2015-07-05 10:53:00,
2015-07-05 05:03:00,69.0,50.0,29.67,East,82,3.0,6.0,50,-99.99,,,-99.99,,2015-07-05 11:03:00,
2015-07-05 05:12:00,68.0,50.0,29.68,East,80,2.0,12.0,52,-99.99,,,-99.99,,2015-07-05 11:12:00,
2015-07-05 05:23:00,67.0,50.0,29.69,North,355,0.0,7.0,54,-99.99,,,-99.99,,2015-07-05 11:23:00,
2015-07-05 05:33:00,67.0,50.0,29.70,NE,47,1.0,6.0,54,-99.99,,,-99.99,,2015-07-05 11:33:00,
2015-07-05 05:43:00,67.0,50.0,29.70,NE,47,1.0,6.0,54,-99.99,,,-99.99,,2015-07-05 11:43:00,
2015-07-05 05:53:00,66.0,50.0,29.72,East,100,6.0,6.0,56,-99.99,,,-99.99,,2015-07-05 11:53:00,
2015-07-05 06:02:00,66.0,50.0,29.72,East,100,6.0,6.0,56,-99.99,,,-99.99,,2015-07-05 12:02:00,
2015-07-05 06:12:00,66.0,50.0,29.72,East,100,6.0,6.0,56,-99.99,,,-99.99,,2015-07-05 12:12:00,
2015-07-05 06:23:00,66.0,50.0,29.72,East,100,6.0,6.0,56,-99.99,,,-99.99,,2015-07-05 12:23:00,
2015-07-05 06:33:00,66.0,50.0,29.72,East,100,6.0,6.0,56,-99.99,,,-99.99,,2015-07-05 12:33:00,
2015-07-05 06:54:00,64.0,49.0,29.75,East,101,2.0,8.0,58,-99.99,,,-99.99,,2015-07-05 12:54:00,
2015-07-05 07:03:00,64.0,49.0,29.75,East,101,2.0,8.0,58,-99.99,,,-99.99,,2015-07-05 13:03:00,
2015-07-05 07:13:00,64.0,49.0,29.75,East,101,3.0,9.0,58,-99.99,,,-99.99,,2015-07-05 13:13:00,
2015-07-05 07:23:00,64.0,49.0,29.76,SE,133,10.0,10.0,58,-99.99,,,-99.99,,2015-07-05 13:23:00,
2015-07-05 07:33:00,64.0,49.0,29.76,East,94,3.0,10.0,58,-99.99,,,-99.99,,2015-07-05 13:33:00,